Location: Stake Lake Observatory
(50.5113°N, 120.4813°W)
Time: 02:01:52
(UTC-07:00)

Envisat - Visible Passes

Search period start: 09 October 2024 00:00
Search period end: 19 October 2024 00:00
Orbit: 762 x 764 km, 98.3° (Epoch: 08 October)

Date Brightness Start Highest point End Pass type
(mag) Time Alt. Az. Time Alt. Az. Time Alt. Az.
09 Oct 4.2 03:40:43 10° NNE 03:45:07 38° E 03:45:07 38° E visible
09 Oct 3.6 05:19:49 10° N 05:24:24 35° WNW 05:25:16 32° W visible
10 Oct 5.2 03:03:59 10° NE 03:07:03 19° E 03:07:03 19° E visible
10 Oct 2.9 04:42:02 10° N 04:47:06 68° WNW 04:47:12 67° W visible
10 Oct 4.8 06:22:49 10° NNW 06:25:09 13° NW 06:27:20 10° WNW visible
11 Oct 3.4 04:04:33 10° NNE 04:09:09 59° ENE 04:09:09 59° ENE visible
11 Oct 4.1 05:44:12 10° N 05:48:10 24° WNW 05:49:17 22° WNW visible
12 Oct 4.7 03:27:25 10° NNE 03:31:05 29° ENE 03:31:05 29° ENE visible
12 Oct 3.3 05:06:12 10° N 05:11:00 44° WNW 05:11:13 43° WNW visible
13 Oct 5.6 02:51:01 10° NE 02:53:01 15° ENE 02:53:01 15° ENE visible
13 Oct 3.0 04:28:31 10° NNE 04:33:10 74° N 04:33:10 74° N visible
13 Oct 4.6 06:08:48 10° NNW 06:11:52 16° NW 06:13:18 15° WNW visible
14 Oct 4.1 03:51:08 10° NNE 03:55:05 42° ENE 03:55:05 42° ENE visible
14 Oct 3.8 05:30:29 10° N 05:34:49 29° WNW 05:35:14 29° WNW visible
15 Oct 5.2 03:14:10 10° NE 03:17:02 22° ENE 03:17:02 22° ENE visible
15 Oct 3.1 04:52:36 10° N 04:57:10 54° NW 04:57:10 54° NW visible
15 Oct 4.9 06:34:05 10° NNW 06:35:28 11° NW 06:36:51 10° WNW visible
16 Oct 5.9 02:38:30 10° ENE 02:38:58 11° ENE 02:38:58 11° ENE visible
16 Oct 3.5 04:15:01 10° NNE 04:19:06 57° NE 04:19:06 57° NE visible
16 Oct 4.3 05:54:55 10° NNW 05:58:32 20° WNW 05:59:14 19° WNW visible
17 Oct 4.6 03:37:45 10° NNE 03:41:02 31° ENE 03:41:02 31° ENE visible
17 Oct 3.6 05:16:47 10° N 05:21:10 36° WNW 05:21:10 36° WNW visible
18 Oct 5.5 03:01:03 10° NE 03:02:58 16° ENE 03:02:58 16° ENE visible
18 Oct 3.3 04:39:01 10° N 04:43:06 55° NNW 04:43:06 55° NNW visible
18 Oct 4.7 06:19:42 10° NNW 06:22:11 14° NW 06:23:14 13° WNW visible
